Wind_Speed
18 17 17 17 17 18 18 19 20 21 22 23 24 25 26 27 28 29 30 30 31 32 32 33 34 35 35 36 37 38 38 38 38 38 38 38 38 38 39 39 39 39 39
19 18 18 18 18 19 20 21 22 23 24 25 26 26 27 28 29 30 30 31 32 33 33 34 35 35 36 37 38 38 38 38 38 38 38 39 39 39 39 39 40 40 40
20 20 19 19 20 21 22 23 24 25 25 26 27 28 29 29 30 31 31 32 33 33 34 35 36 36 37 38 38 38 38 38 39 39 39 39 39 40 40 40 40 40 40
21 21 21 21 22 23 24 25 25 26 27 28 29 30 30 31 31 32 32 33 33 34 35 36 37 37 38 38 39 39 39 39 39 39 39 39 39 39 39 39 39 39 39
23 23 23 23 23 24 25 26 27 28 28 29 30 31 31 32 32 33 33 34 34 35 36 37 37 38 38 39 39 39 39 39 39 39 39 39 39 39 39 39 39 39 39
25 25 25 25 25 26 27 27 28 29 30 31 31 32 33 33 33 34 34 35 35 36 37 38 38 39 39 39 40 40 39 39 39 39 40 39 39 39 39 39 39 39 39
27 27 27 27 27 28 28 29 30 30 31 32 32 33 34 34 34 35 35 36 36 37 38 38 39 39 40 40 40 40 40 39 39 40 40 39 39 39 39 39 40 40 40
29 29 28 28 29 30 31 31 32 32 33 33 34 34 35 35 35 36 36 36 37 38 38 39 40 40 40 40 40 40 40 40 40 40 40 40 40 40 40 40 40 41 41
30 30 30 31 32 32 33 33 33 33 34 34 35 35 36 36 36 36 36 37 38 38 39 40 40 40 40 40 40 40 40 41 41 41 41 41 41 41 42 42 42 43 43
33 33 33 33 33 34 34 34 35 35 35 35 36 36 37 37 37 36 37 38 39 39 40 40 40 40 40 40 41 41 41 42 42 42 42 42 43 43 43 43 44 45 45
36 36 35 35 35 36 36 36 36 36 36 37 37 37 37 37 37 37 37 38 39 39 40 40 40 41 41 41 42 42 42 43 43 44 44 44 44 44 45 45 46 47 47
37 37 37 37 37 37 38 38 38 38 38 38 38 38 38 38 38 38 38 39 39 40 40 40 41 42 42 42 43 43 43 44 45 45 45 46 46 47 47 48 48 49 50
38 38 39 39 39 39 39 39 39 39 39 38 38 39 39 38 39 39 39 40 40 40 41 41 42 43 43 43 43 44 45 46 46 47 47 48 49 49 50 50 51 52 53
40 40 40 40 40 40 40 40 39 39 39 39 39 39 39 39 39 40 40 41 41 41 41 41 42 43 44 44 45 46 47 48 48 49 49 50 51 51 52 53 54 55 57
40 41 41 41 41 42 41 41 40 40 39 39 39 40 39 40 40 40 41 42 42 42 42 42 43 44 45 46 47 48 49 50 50 51 52 53 53 54 55 56 57 59 60
42 42 42 42 42 42 42 41 40 40 40 39 40 40 40 41 41 41 42 42 43 43 43 43 44 45 46 47 49 50 51 52 53 54 55 55 55 56 57 58 59 60 61
43 43 43 43 42 42 41 40 40 40 40 40 40 41 41 41 42 42 42 43 43 44 44 44 45 46 47 49 51 52 53 54 55 56 56 57 57 58 59 60 61 62 62
43 43 43 43 43 42 41 41 40 40 40 40 41 41 41 42 42 42 42 43 44 44 45 45 46 48 49 51 52 53 54 55 56 57 58 58 59 60 61 62 63 62 63
44 44 43 43 42 42 41 40 40 40 41 41 41 41 42 42 42 42 43 43 44 45 46 47 48 49 51 53 54 55 55 56 57 58 59 60 61 62 63 64 64 63 64
44 43 43 42 41 41 41 40 40 41 41 41 41 41 42 42 42 43 43 44 45 45 47 48 50 51 52 53 55 56 56 57 58 60 61 62 63 63 63 64 64 64 65
43 42 42 41 41 41 40 41 41 41 41 41 41 41 42 42 42 43 43 44 45 46 47 49 50 51 53 55 56 56 57 58 59 60 61 62 62 62 63 64 64 63 64
42 41 41 41 41 41 41 41 41 41 41 42 41 41 41 41 42 42 43 44 45 46 48 49 51 52 54 55 56 57 57 58 59 60 61 61 62 62 62 63 63 62 62
40 41 41 41 40 40 41 41 41 41 41 41 40 40 41 41 42 42 43 44 46 47 48 49 51 53 55 55 56 57 58 59 60 61 62 61 62 62 62 62 61 61 61
40 40 40 40 41 41 40 41 41 41 41 40 40 40 40 41 42 42 43 45 46 47 48 50 52 54 55 55 56 57 58 59 60 62 62 61 61 60 60 60 60 60 59
39 39 39 39 40 40 40 40 40 40 40 40 39 40 41 41 42 43 44 45 46 47 48 50 52 54 54 55 56 58 59 60 60 60 61 60 59 58 58 59 58 58 57
38 38 38 38 38 39 39 39 39 39 39 39 39 40 40 41 42 43 44 45 45 47 48 50 52 53 54 55 56 58 59 60 60 59 59 59 58 58 57 57 57 56 55
Wind_Direction
248 254 260 267 272 277 282 287 292 296 298 300 301 302 303 304 305 306 306 306 306 307 306 306 306 307 307 307 307 306 306 305 305 304 303 302 301 300 299 298 296 295 294
250 256 262 268 273 278 283 288 292 296 298 300 301 302 303 304 305 306 306 306 306 306 306 306 306 306 307 307 307 307 306 306 305 305 304 303 302 301 300 299 298 296 295
253 258 264 269 274 278 282 287 291 294 297 299 301 302 303 304 304 305 305 305 306 306 306 306 306 306 307 308 308 308 307 306 306 305 305 304 303 302 301 300 298 297 296
254 260 265 270 275 279 283 287 290 294 296 298 300 302 302 303 304 305 305 306 306 307 307 306 306 306 307 308 308 308 308 307 307 306 305 305 304 304 303 301 300 299 297
257 261 266 271 275 280 284 288 291 294 295 297 299 300 302 303 303 304 305 305 306 307 307 306 306 306 307 308 309 308 308 308 307 307 306 306 306 305 304 303 302 300 299
259 263 267 272 276 281 285 288 291 293 295 297 298 299 301 302 303 304 304 304 306 307 307 306 306 307 308 308 309 309 308 308 308 308 307 307 306 306 305 304 303 301 300
260 265 269 273 277 281 285 287 289 291 294 296 297 299 300 301 302 303 303 304 305 306 306 306 306 307 308 308 309 309 309 309 309 308 308 308 307 306 305 304 303 302 300
261 266 270 274 277 280 283 285 288 290 293 295 297 298 299 300 301 303 303 304 305 306 306 306 307 307 307 308 309 309 309 309 309 309 308 308 307 306 305 304 303 302 300
262 266 270 273 277 280 282 285 287 289 292 294 296 297 298 299 301 302 302 303 305 305 305 307 307 307 307 308 308 309 308 309 309 309 309 308 307 306 305 303 302 301 300
263 267 270 274 277 279 281 283 286 288 290 292 294 296 297 298 299 300 301 302 304 305 305 306 307 307 307 307 307 308 308 309 309 308 308 307 307 306 305 303 302 301 300
264 268 271 273 276 278 280 282 285 288 290 291 293 295 296 297 298 298 300 302 303 304 304 305 306 306 306 306 307 307 308 309 309 308 308 307 307 306 304 303 302 301 300
264 267 270 272 274 277 279 282 284 286 288 290 292 293 294 295 296 298 299 301 302 303 304 304 305 306 306 306 306 307 307 308 308 308 307 307 306 305 304 303 302 301 300
264 267 270 272 274 276 278 281 284 286 287 289 290 292 293 294 295 297 299 301 302 303 303 304 305 305 306 306 306 307 308 308 308 308 307 306 306 305 304 303 302 301 300
264 267 269 272 274 276 279 281 283 285 286 288 289 291 292 293 294 296 298 300 301 302 302 303 304 304 305 306 307 307 308 308 308 308 307 307 306 305 304 303 302 302 301
264 266 269 271 273 276 278 280 282 284 285 287 288 289 290 292 294 296 297 299 301 301 302 303 303 303 305 306 307 307 308 308 307 307 307 307 306 305 304 303 303 303 302
263 265 268 270 273 275 277 279 281 282 284 285 287 288 289 291 293 295 296 298 300 301 301 302 303 303 304 306 306 307 308 308 307 307 307 307 307 306 305 304 304 304 304
263 265 268 270 273 275 277 279 280 281 282 283 286 287 289 290 292 294 295 297 299 300 301 302 303 303 304 305 306 307 308 308 308 308 308 307 307 307 306 306 306 305 304
262 265 267 270 273 275 276 278 279 279 281 283 285 287 288 290 292 293 294 296 298 299 301 302 303 303 305 306 307 307 308 308 308 308 308 308 308 308 307 307 306 305 304
262 264 267 269 272 273 274 276 277 279 281 283 285 287 288 290 291 293 294 296 297 298 300 302 303 303 305 306 307 308 308 309 309 310 309 309 308 308 308 307 307 306 305
262 264 267 269 270 272 273 275 277 279 281 282 284 286 288 289 291 292 293 294 296 297 299 301 303 304 305 306 307 308 308 309 310 310 310 310 309 309 309 309 308 307 306
261 263 266 267 269 271 273 274 276 278 280 282 283 285 287 288 290 291 292 294 296 297 299 301 303 304 305 306 307 308 308 309 310 311 311 311 310 310 310 310 310 309 309
260 262 265 267 269 270 272 274 276 278 280 281 283 285 286 288 289 290 292 294 296 298 300 301 303 304 305 306 307 308 309 310 311 311 311 312 312 312 312 312 312 311 311
261 263 265 266 269 271 272 274 275 277 279 281 283 284 285 287 289 290 292 294 296 298 300 301 302 304 305 306 308 309 310 310 311 311 312 313 313 313 313 313 313 313 312
260 262 264 266 268 270 272 273 275 277 278 281 283 284 285 287 288 290 292 294 296 298 300 301 303 304 306 307 308 309 310 311 312 312 313 313 314 314 315 315 315 314 314
261 263 265 267 268 270 271 273 275 276 278 280 282 283 285 286 289 290 292 294 296 298 299 301 303 305 307 308 308 309 310 312 313 313 313 314 315 315 316 316 316 315 315
261 263 265 266 268 269 271 273 275 276 279 281 283 284 286 287 288 290 293 295 296 298 300 302 305 306 308 308 309 310 311 312 313 313 314 314 315 316 317 317 317 316 317
Height
5849 5849 5849 5849 5849 5849 5848 5847 5846 5844 5843 5841 5839 5837 5834 5832 5829 5826 5823 5820 5817 5814 5811 5808 5804 5801 5797 5793 5790 5786 5782 5778 5774 5770 5767 5763 5759 5756 5752 5749 5745 5742 5739
5845 5845 5845 5845 5845 5844 5844 5843 5841 5840 5838 5836 5834 5832 5829 5827 5824 5821 5818 5815 5812 5808 5805 5802 5798 5794 5791 5787 5783 5779 5775 5771 5767 5763 5759 5755 5751 5748 5744 5740 5737 5734 5730
5840 5841 5841 5841 5841 5840 5839 5838 5837 5835 5833 5831 5829 5826 5824 5821 5818 5815 5812 5809 5806 5802 5799 5795 5792 5788 5784 5780 5776 5772 5768 5764 5759 5755 5751 5747 5743 5739 5736 5732 5728 5725 5721
5836 5836 5836 5836 5836 5835 5834 5833 5831 5830 5828 5826 5823 5821 5818 5815 5812 5809 5806 5803 5800 5796 5793 5789 5785 5781 5777 5773 5769 5765 5761 5756 5752 5748 5744 5739 5735 5731 5727 5723 5720 5716 5713
5830 5831 5831 5831 5831 5830 5829 5828 5826 5824 5822 5820 5818 5815 5812 5809 5807 5803 5800 5797 5793 5790 5786 5782 5778 5774 5770 5766 5762 5758 5753 5749 5745 5740 5736 5732 5727 5723 5719 5715 5711 5707 5704
5825 5825 5826 5826 5825 5824 5823 5822 5820 5818 5816 5814 5812 5809 5806 5803 5800 5797 5794 5790 5787 5783 5779 5775 5771 5767 5763 5759 5755 5750 5746 5742 5737 5733 5728 5724 5719 5715 5711 5707 5703 5699 5695
5819 5819 5820 5820 5819 5818 5817 5816 5814 5812 5810 5808 5805 5803 5800 5797 5794 5791 5787 5784 5780 5777 5773 5768 5764 5760 5756 5752 5747 5743 5738 5734 5730 5725 5721 5716 5712 5707 5703 5699 5694 5690 5686
5812 5813 5813 5813 5813 5812 5811 5809 5808 5806 5804 5801 5799 5796 5794 5791 5787 5784 5781 5777 5774 5770 5766 5761 5757 5753 5748 5744 5740 5735 5731 5726 5722 5717 5713 5708 5704 5699 5695 5690 5686 5682 5677
5806 5806 5807 5806 5806 5805 5804 5802 5801 5799 5797 5795 5792 5790 5787 5784 5781 5778 5774 5770 5766 5763 5758 5754 5750 5745 5741 5737 5732 5728 5723 5718 5714 5709 5704 5700 5695 5690 5686 5681 5677 5672 5668
5798 5799 5799 5799 5799 5798 5797 5795 5794 5792 5790 5788 5785 5782 5780 5777 5774 5771 5767 5763 5759 5755 5751 5747 5742 5738 5734 5729 5725 5720 5715 5710 5706 5701 5696 5691 5686 5681 5676 5671 5667 5662 5657
5791 5791 5792 5792 5791 5790 5789 5788 5786 5785 5783 5780 5778 5775 5772 5769 5766 5763 5760 5756 5752 5748 5744 5739 5735 5730 5726 5721 5717 5712 5707 5702 5697 5692 5687 5682 5677 5671 5666 5661 5656 5651 5646
5783 5783 5784 5784 5783 5782 5781 5780 5779 5777 5775 5773 5770 5768 5765 5762 5759 5755 5752 5748 5744 5740 5736 5731 5727 5722 5718 5713 5708 5703 5699 5693 5688 5683 5677 5672 5667 5661 5656 5650 5645 5639 5634
5775 5775 5775 5775 5775 5774 5773 5772 5771 5769 5767 5765 5762 5760 5757 5754 5751 5747 5744 5740 5737 5733 5728 5724 5719 5714 5709 5704 5700 5695 5690 5684 5679 5673 5667 5662 5656 5650 5644 5638 5633 5627 5621
5766 5766 5766 5766 5766 5765 5764 5763 5762 5761 5759 5757 5754 5751 5749 5746 5743 5739 5736 5732 5728 5725 5720 5716 5711 5706 5701 5696 5691 5685 5680 5675 5669 5663 5657 5651 5645 5638 5632 5626 5620 5613 5607
5757 5757 5757 5757 5757 5757 5756 5755 5754 5752 5750 5748 5746 5743 5740 5737 5734 5731 5727 5723 5720 5716 5712 5707 5702 5697 5692 5686 5681 5676 5670 5664 5658 5652 5645 5639 5632 5626 5619 5612 5605 5599 5592
5747 5748 5748 5748 5748 5747 5747 5746 5745 5743 5742 5739 5737 5734 5732 5729 5726 5722 5719 5715 5711 5707 5703 5699 5693 5688 5683 5677 5671 5665 5659 5653 5647 5640 5633 5626 5619 5612 5605 5598 5591 5583 5576
5738 5739 5739 5739 5739 5738 5738 5737 5736 5734 5732 5731 5728 5726 5723 5720 5717 5713 5710 5706 5702 5697 5694 5689 5684 5679 5673 5667 5661 5655 5648 5641 5635 5627 5620 5613 5606 5598 5591 5583 5576 5568 5560
5728 5729 5729 5729 5729 5729 5728 5728 5726 5725 5723 5721 5719 5716 5714 5711 5708 5704 5701 5697 5693 5688 5684 5680 5674 5669 5663 5657 5650 5644 5637 5629 5622 5615 5607 5599 5592 5584 5576 5568 5560 5551 5544
5719 5719 5720 5720 5720 5719 5719 5718 5717 5715 5714 5712 5710 5707 5704 5701 5698 5695 5691 5688 5683 5679 5674 5669 5664 5659 5652 5646 5639 5632 5625 5617 5609 5602 5594 5586 5577 5569 5560 5552 5543 5535 5527
5708 5709 5710 5710 5710 5710 5709 5708 5707 5706 5704 5702 5700 5698 5695 5692 5689 5685 5682 5678 5674 5669 5664 5659 5654 5648 5642 5635 5628 5620 5613 5605 5597 5589 5580 5571 5562 5553 5545 5536 5527 5519 5510
5698 5699 5700 5700 5700 5700 5700 5699 5698 5696 5694 5693 5690 5688 5685 5682 5679 5676 5672 5668 5664 5660 5655 5649 5644 5637 5631 5623 5616 5608 5601 5593 5585 5576 5567 5557 5548 5540 5530 5521 5512 5503 5494
5688 5689 5690 5690 5690 5690 5690 5689 5688 5686 5685 5683 5681 5678 5675 5673 5669 5666 5663 5659 5654 5650 5644 5639 5633 5626 5619 5612 5605 5597 5589 5581 5573 5565 5555 5545 5535 5526 5516 5507 5497 5488 5479
5678 5679 5680 5680 5680 5680 5680 5679 5677 5676 5675 5673 5671 5668 5666 5663 5660 5656 5653 5649 5644 5639 5634 5629 5622 5615 5608 5601 5594 5586 5577 5568 5560 5550 5541 5533 5522 5512 5503 5493 5484 5474 5465
5668 5669 5670 5670 5670 5670 5670 5669 5667 5666 5664 5663 5661 5659 5656 5653 5650 5646 5643 5639 5634 5629 5624 5618 5612 5605 5597 5589 5582 5574 5565 5557 5548 5538 5528 5520 5510 5500 5490 5480 5470 5461 5451
5658 5659 5660 5660 5660 5660 5660 5659 5657 5656 5655 5653 5651 5649 5646 5643 5640 5637 5633 5629 5624 5619 5613 5607 5600 5593 5586 5578 5570 5562 5553 5545 5536 5526 5516 5507 5498 5489 5479 5468 5458 5449 5439
5648 5649 5650 5650 5650 5650 5650 5649 5647 5646 5645 5643 5641 5639 5636 5633 5630 5626 5622 5618 5614 5609 5603 5596 5590 5582 5575 5567 5558 5550 5541 5532 5523 5515 5505 5495 5486 5476 5469 5459 5448 5438 5428